Location: Earls Croome
(52.0667°N, 2.2000°W)
Time: 16:41:21
(UTC+00:00)

Cosmos 2346 Rocket - Pass Details

Date: 17 November 2019
Orbit: 935 x 981 km, 82.9° (Epoch: 11 December)

Event Time Altitude Azimuth Distance (km) Brightness Sun altitude
Rises 05:39:33 0° 349° (NNW) 3,635 7.3 -16.9°
Reaches altitude 10° 05:42:03 10° 348° (NNW) 2,680 6.6 -16.6°
Maximum altitude 05:48:10 82° 263° (W) 956 4.4 -15.6°
Drops below altitude 10° 05:54:12 10° 176° (S) 2,643 7.0 -14.7°
Sets 05:56:40 0° 176° (S) 3,581 7.7 -14.4°
